EW6480 Weather Reports


time (UTC)temp
C
wind
direction
speed
KPH
gust
KPH
rain 1hr
cm
rain 24hr
cm
rain mn
cm
humidity
%
barometer
mb
20260507074541 12 274 1.6 6.4 0.00 0.00 0.00 84 1007.1
20260507073038 12 229 0.0 6.4 0.00 0.00 0.00 84 1007.2
20260507071559 13 157 1.6 6.4 0.00 0.00 0.00 84 1006.4
20260507070035 13 293 0.0 3.2 0.00 0.00 0.00 84 1006.7
20260507064533 13 330 0.0 3.2 0.00 0.00 0.00 84 1006.7
20260507063034 13 214 0.0 8.0 0.00 0.00 0.00 84 1006.7
20260507061530 13 302 0.0 3.2 0.00 0.00 0.00 84 1006.5
20260507060037 14 214 0.0 3.2 0.00 0.00 0.00 85 1006.7
20260507054526 14 228 1.6 6.4 0.00 0.00 0.00 85 1006.8
20260507053025 15 203 0.0 4.8 0.00 0.00 0.00 85 1007.0
20260507051529 15 283 0.0 9.7 0.00 0.00 0.00 85 1006.6
20260507050022 15 151 0.0 8.0 0.00 0.00 0.00 85 1006.6
20260507044521 15 210 1.6 6.4 0.00 0.00 0.00 86 1006.7
20260507043016 15 268 3.2 9.7 0.00 0.00 0.00 85 1006.5
20260507041514 15 224 0.0 8.0 0.00 0.00 0.00 84 1006.6
20260507040011 15 252 1.6 4.8 0.00 0.00 0.00 84 1006.8
20260507034526 15 205 0.0 8.0 0.00 0.00 0.00 84 1006.7
20260507033015 15 224 3.2 11.3 0.00 0.00 0.00 85 1006.4
20260507031509 15 166 4.8 14.5 0.00 0.00 0.00 85 1006.2
20260507030008 15 234 1.6 6.4 0.00 0.00 0.00 85 1006.2
20260507024508 15 224 3.2 9.7 0.00 0.00 0.00 85 1006.1
20260507023016 15 218 6.4 14.5 0.00 0.00 0.00 84 1006.3
20260507021507 15 283 4.8 12.9 0.00 0.00 0.00 84 1006.2
20260507020006 15 227 4.8 9.7 0.00 0.00 0.00 84 1006.1
20260507014510 15 272 3.2 14.5 0.00 0.00 0.00 84 1006.2
20260507013003 15 285 3.2 12.9 0.00 0.00 0.00 84 1006.2
20260507011505 15 212 4.8 11.3 0.00 0.00 0.00 84 1006.6
20260507010003 15 195 0.0 12.9 0.00 0.00 0.00 84 1006.7
20260507004502 15 176 3.2 17.7 0.00 0.00 0.00 84 1006.7
20260507003002 15 231 3.2 9.7 0.00 0.00 0.00 84 1006.6
20260507001602 15 225 1.6 9.7 0.00 0.00 0.00 84 1006.5
20260507000059 15 296 4.8 11.3 0.00 0.00 0.00 84 1006.2
20260506234556 15 250 1.6 12.9 0.00 0.00 0.00 84 1006.3
20260506233058 15 225 3.2 9.7 0.00 0.00 0.00 84 1006.2
20260506231553 15 218 0.0 16.1 0.00 0.00 0.00 85 1006.1
20260506230051 16 273 0.0 8.0 0.00 0.00 0.00 85 1006.3
20260506224550 16 186 0.0 11.3 0.00 0.00 0.00 85 1006.3
20260506223048 16 264 0.0 11.3 0.00 0.00 0.00 84 1006.2
20260506221546 16 261 1.6 12.9 0.00 0.00 0.00 84 1006.7
20260506220048 16 247 3.2 14.5 0.00 0.00 0.00 85 1006.7
20260506214550 16 222 1.6 17.7 0.00 0.00 0.00 84 1007.0
20260506213042 17 292 4.8 16.1 0.00 0.00 0.00 84 1007.1
20260506211540 17 234 3.2 12.9 0.00 0.00 0.00 84 1007.0
20260506210041 16 235 6.4 14.5 0.00 0.00 0.00 83 1007.0
20260506204548 17 195 3.2 19.3 0.00 0.00 0.00 83 1007.3
20260506203037 17 238 4.8 19.3 0.00 0.00 0.00 81 1007.3
20260506201537 17 30 1.6 14.5 0.00 0.00 0.00 81 1007.2
20260506200036 17 238 0.0 17.7 0.00 0.00 0.00 81 1007.0
20260506194535 18 278 1.6 8.0 0.00 0.00 0.00 79 1007.3
20260506193034 18 333 0.0 6.4 0.00 0.00 0.00 77 1007.5
20260506191534 19 274 1.6 11.3 0.00 0.00 0.00 72 1007.3
20260506190034 20 297 1.6 6.4 0.00 0.00 0.00 66 1007.3
20260506184533 21 77 4.8 16.1 0.00 0.00 0.00 63 1007.3
20260506183032 21 288 3.2 19.3 0.00 0.00 0.00 60 1007.4
20260506181532 21 222 3.2 20.9 0.00 0.00 0.00 58 1007.4
20260506180030 22 250 3.2 11.3 0.00 0.00 0.00 58 1007.6
20260506174528 22 264 1.6 14.5 0.00 0.00 0.00 59 1007.8
20260506173026 22 251 1.6 14.5 0.00 0.00 0.00 60 1008.0
20260506171526 22 230 3.2 12.9 0.00 0.00 0.00 60 1007.9
20260506170025 21 251 4.8 17.7 0.00 0.00 0.00 61 1007.9
20260506164526 22 48 1.6 16.1 0.00 0.00 0.00 61 1008.2
20260506163020 22 259 1.6 16.1 0.00 0.00 0.00 60 1008.4
20260506161519 22 265 6.4 17.7 0.00 0.00 0.00 60 1008.6
20260506160018 21 226 3.2 17.7 0.00 0.00 0.00 60 1008.8
20260506154515 22 274 1.6 25.7 0.00 0.00 0.00 60 1009.1
20260506153014 22 225 4.8 19.3 0.00 0.00 0.00 59 1009.4
20260506151512 22 205 0.0 11.3 0.00 0.00 0.00 60 1009.4
20260506150009 21 333 6.4 22.5 0.00 0.00 0.00 61 1009.6
20260506144515 21 205 6.4 16.1 0.00 0.00 0.00 61 1009.5
20260506143004 21 269 4.8 12.9 0.00 0.00 0.00 65 1009.5
20260506141601 20 349 0.0 9.7 0.00 0.00 0.00 68 1009.4
20260506140057 19 207 3.2 11.3 0.00 0.00 0.00 69 1009.7
20260506134555 19 270 3.2 12.9 0.00 0.00 0.00 71 1009.6
20260506133056 18 277 4.8 17.7 0.00 0.00 0.00 72 1010.2
20260506131549 18 208 0.0 14.5 0.00 0.00 0.00 74 1010.2
20260506130050 18 207 0.0 16.1 0.00 0.00 0.00 75 1010.1
20260506124547 17 231 0.0 16.1 0.00 0.00 0.00 77 1010.3
20260506123047 17 239 4.8 16.1 0.00 0.00 0.00 78 1010.4
20260506121546 17 281 0.0 14.5 0.00 0.00 0.00 78 1010.2
20260506120045 16 275 1.6 14.5 0.00 0.00 0.00 79 1010.6
20260506114546 16 269 1.6 14.5 0.00 0.00 0.00 80 1010.5
20260506113044 16 235 6.4 17.7 0.00 0.00 0.00 79 1010.9
20260506111543 16 265 4.8 11.3 0.00 0.00 0.00 79 1010.7
20260506110043 16 285 1.6 14.5 0.00 0.00 0.00 79 1010.5
20260506104547 16 300 1.6 11.3 0.00 0.00 0.00 80 1010.6
20260506103041 16 225 1.6 16.1 0.00 0.00 0.00 80 1010.8
20260506101540 16 241 1.6 11.3 0.00 0.00 0.00 80 1010.7
20260506100038 16 210 1.6 9.7 0.00 0.00 0.00 80 1010.6
20260506094537 16 212 3.2 16.1 0.00 0.00 0.00 80 1010.4
20260506093040 16 185 1.6 9.7 0.00 0.00 0.00 79 1010.5
20260506091535 16 302 1.6 11.3 0.00 0.00 0.00 79 1010.4
20260506090033 16 208 0.0 9.7 0.00 0.00 0.00 78 1010.4
20260506084537 16 228 0.0 9.7 0.00 0.00 0.00 78 1010.4
20260506083031 16 257 0.0 11.3 0.00 0.00 0.00 77 1010.5
20260506081530 16 218 1.6 8.0 0.00 0.00 0.00 77 1010.4